Hourly Weather Barra

Today, 26 September, Saturday

Time Temperature Precipitation Wind Pressure Humidity
00:00 +25°C° 0 mm 3 mps 725 mmHg 62%
01:00 +25°C° 0 mm 3 mps 725 mmHg 63%
02:00 +25°C° 0 mm 4 mps 725 mmHg 65%
03:00 +23°C° 0 mm 4 mps 725 mmHg 67%
04:00 +23°C° 0 mm 4 mps 725 mmHg 69%
05:00 +22°C° 0 mm 4 mps 725 mmHg 71%
06:00 +22°C° 0 mm 4 mps 726 mmHg 73%
07:00 +26°C° 0 mm 4 mps 726 mmHg 62%
08:00 +29°C° 0 mm 4 mps 726 mmHg 52%
09:00 +32°C° 0 mm 4 mps 727 mmHg 42%
10:00 +34°C° 0 mm 4 mps 726 mmHg 37%
11:00 +36°C° 0 mm 3 mps 726 mmHg 32%
12:00 +38°C° 0 mm 3 mps 725 mmHg 28%
13:00 +38°C° 0 mm 2 mps 724 mmHg 27%
14:00 +38°C° 0 mm 2 mps 724 mmHg 26%
15:00 +36°C° 0 mm 1 mps 723 mmHg 25%
16:00 +35°C° 0 mm 1 mps 723 mmHg 29%
17:00 +33°C° 0 mm 1 mps 723 mmHg 33%
18:00 +31°C° 0 mm 1 mps 723 mmHg 36%
19:00 +30°C° 0 mm 2 mps 723 mmHg 38%
20:00 +29°C° 0 mm 3 mps 724 mmHg 40%
21:00 +28°C° 0 mm 4 mps 724 mmHg 42%
22:00 +28°C° 0 mm 4 mps 724 mmHg 46%
23:00 +27°C° 0 mm 4 mps 724 mmHg 49%

Tomorrow, 27 September, Sunday

Time Temperature Precipitation Wind Pressure Humidity
00:00 +27°C° 0 mm 4 mps 724 mmHg 53%
01:00 +26°C° 0 mm 4 mps 724 mmHg 56%
02:00 +25°C° 0 mm 5 mps 724 mmHg 59%
03:00 +23°C° 0 mm 5 mps 723 mmHg 62%
04:00 +23°C° 0 mm 4 mps 724 mmHg 64%
05:00 +22°C° 0 mm 3 mps 724 mmHg 67%
06:00 +21°C° 0 mm 2 mps 725 mmHg 69%
07:00 +26°C° 0 mm 3 mps 725 mmHg 57%
08:00 +29°C° 0 mm 3 mps 725 mmHg 45%
09:00 +34°C° 0 mm 3 mps 726 mmHg 34%
10:00 +36°C° 0 mm 3 mps 725 mmHg 30%
11:00 +38°C° 0 mm 3 mps 725 mmHg 26%
12:00 +39°C° 0 mm 3 mps 725 mmHg 22%
13:00 +39°C° 0 mm 3 mps 724 mmHg 21%
14:00 +39°C° 0 mm 3 mps 723 mmHg 20%
15:00 +39°C° 0 mm 3 mps 722 mmHg 19%
16:00 +37°C° 0 mm 2 mps 722 mmHg 21%
17:00 +35°C° 0 mm 2 mps 722 mmHg 23%
18:00 +32°C° 0 mm 1 mps 722 mmHg 26%
19:00 +31°C° 0 mm 2 mps 722 mmHg 29%
20:00 +30°C° 0 mm 3 mps 723 mmHg 31%
21:00 +28°C° 0 mm 3 mps 723 mmHg 34%
22:00 +28°C° 0 mm 3 mps 724 mmHg 37%
23:00 +27°C° 0 mm 3 mps 724 mmHg 41%

Day after tomorrow, 28 September, Monday

Time Temperature Precipitation Wind Pressure Humidity
00:00 +26°C° 0 mm 3 mps 724 mmHg 44%
01:00 +26°C° 0 mm 3 mps 724 mmHg 47%
02:00 +25°C° 0 mm 4 mps 723 mmHg 50%
03:00 +25°C° 0 mm 4 mps 723 mmHg 54%
04:00 +23°C° 0 mm 4 mps 723 mmHg 58%
05:00 +24°C° 0 mm 3 mps 723 mmHg 62%
06:00 +22°C° 0 mm 3 mps 724 mmHg 66%
07:00 +27°C° 0 mm 3 mps 724 mmHg 55%
08:00 +30°C° 0 mm 3 mps 725 mmHg 45%
09:00 +35°C° 0 mm 3 mps 725 mmHg 34%
10:00 +37°C° 0 mm 3 mps 725 mmHg 30%
11:00 +38°C° 0 mm 3 mps 724 mmHg 26%
12:00 +40°C° 0 mm 3 mps 724 mmHg 22%
13:00 +40°C° 0 mm 3 mps 723 mmHg 20%
14:00 +41°C° 0 mm 2 mps 722 mmHg 19%
15:00 +41°C° 0 mm 2 mps 721 mmHg 17%
16:00 +39°C° 0 mm 2 mps 721 mmHg 20%
17:00 +36°C° 0 mm 2 mps 721 mmHg 23%
18:00 +34°C° 0 mm 2 mps 721 mmHg 27%
19:00 +33°C° 0 mm 3 mps 722 mmHg 30%
20:00 +32°C° 0 mm 4 mps 723 mmHg 34%
21:00 +30°C° 0 mm 5 mps 723 mmHg 38%
22:00 +29°C° 0 mm 4 mps 723 mmHg 39%
23:00 +28°C° 0 mm 4 mps 723 mmHg 41%

29 September, Tuesday

Time Temperature Precipitation Wind Pressure Humidity
00:00 +27°C° 0 mm 3 mps 724 mmHg 43%
01:00 +26°C° 0 mm 4 mps 723 mmHg 46%
02:00 +26°C° 0 mm 4 mps 723 mmHg 49%
03:00 +25°C° 0 mm 4 mps 723 mmHg 52%
04:00 +24°C° 0 mm 3 mps 723 mmHg 56%
05:00 +24°C° 0 mm 3 mps 723 mmHg 59%
06:00 +23°C° 0 mm 2 mps 724 mmHg 62%
07:00 +26°C° 0 mm 3 mps 724 mmHg 53%
08:00 +30°C° 0 mm 3 mps 725 mmHg 44%
09:00 +34°C° 0 mm 4 mps 726 mmHg 35%
10:00 +35°C° 0 mm 4 mps 725 mmHg 31%
11:00 +37°C° 0 mm 4 mps 725 mmHg 28%
12:00 +38°C° 0 mm 4 mps 724 mmHg 25%
13:00 +40°C° 0 mm 4 mps 724 mmHg 23%
14:00 +40°C° 0 mm 4 mps 723 mmHg 22%
15:00 +40°C° 0 mm 4 mps 722 mmHg 20%
16:00 +37°C° 0 mm 4 mps 722 mmHg 22%
17:00 +35°C° 0 mm 3 mps 722 mmHg 25%
18:00 +33°C° 0 mm 3 mps 722 mmHg 27%
19:00 +32°C° 0 mm 4 mps 723 mmHg 30%
20:00 +30°C° 0 mm 5 mps 724 mmHg 34%
21:00 +29°C° 0 mm 6 mps 724 mmHg 38%
22:00 +28°C° 0 mm 5 mps 724 mmHg 42%
23:00 +27°C° 0 mm 5 mps 724 mmHg 47%

30 September, Wednesday

Time Temperature Precipitation Wind Pressure Humidity
00:00 +26°C° 0 mm 4 mps 724 mmHg 52%
01:00 +25°C° 0 mm 4 mps 724 mmHg 58%
02:00 +23°C° 0 mm 4 mps 724 mmHg 64%
03:00 +24°C° 0 mm 3 mps 724 mmHg 71%
04:00 +22°C° 0 mm 4 mps 724 mmHg 72%
05:00 +22°C° 0 mm 4 mps 725 mmHg 73%
06:00 +22°C° 0 mm 4 mps 725 mmHg 75%
07:00 +25°C° 0 mm 5 mps 726 mmHg 65%
08:00 +28°C° 0 mm 5 mps 726 mmHg 56%
09:00 +30°C° 0 mm 5 mps 727 mmHg 46%
10:00 +33°C° 0 mm 5 mps 726 mmHg 41%
11:00 +35°C° 0 mm 5 mps 726 mmHg 37%
12:00 +36°C° 0 mm 5 mps 725 mmHg 32%
13:00 +37°C° 0 mm 5 mps 724 mmHg 29%
14:00 +38°C° 0 mm 4 mps 724 mmHg 26%
15:00 +38°C° 0 mm 4 mps 723 mmHg 24%
16:00 +36°C° 0 mm 4 mps 723 mmHg 26%
17:00 +35°C° 0 mm 3 mps 723 mmHg 29%
18:00 +33°C° 0 mm 3 mps 723 mmHg 31%
19:00 +31°C° 0 mm 3 mps 724 mmHg 33%
20:00 +30°C° 0 mm 4 mps 724 mmHg 36%
21:00 +29°C° 0 mm 4 mps 725 mmHg 38%
22:00 +29°C° 0 mm 5 mps 725 mmHg 41%
23:00 +28°C° 0 mm 6 mps 725 mmHg 44%

1 October, Thursday

Time Temperature Precipitation Wind Pressure Humidity
00:00 +27°C° 0 mm 7 mps 725 mmHg 47%
01:00 +26°C° 0 mm 6 mps 724 mmHg 54%
02:00 +25°C° 0 mm 5 mps 724 mmHg 60%
03:00 +23°C° 0 mm 5 mps 724 mmHg 67%
04:00 +23°C° 0 mm 4 mps 724 mmHg 66%
05:00 +22°C° 0 mm 4 mps 725 mmHg 66%
06:00 +22°C° 0 mm 4 mps 725 mmHg 66%
07:00 +26°C° 0 mm 4 mps 725 mmHg 54%
08:00 +29°C° 0 mm 5 mps 726 mmHg 43%
09:00 +32°C° 0 mm 5 mps 726 mmHg 32%
10:00 +34°C° 0 mm 5 mps 726 mmHg 28%
11:00 +36°C° 0 mm 4 mps 725 mmHg 25%
12:00 +37°C° 0 mm 4 mps 725 mmHg 21%
13:00 +38°C° 0 mm 3 mps 724 mmHg 19%
14:00 +39°C° 0 mm 3 mps 723 mmHg 17%
15:00 +39°C° 0 mm 3 mps 722 mmHg 15%
16:00 +37°C° 0 mm 3 mps 722 mmHg 18%
17:00 +35°C° 0 mm 2 mps 722 mmHg 21%
18:00 +32°C° 0 mm 2 mps 722 mmHg 24%
19:00 +30°C° 0 mm 2 mps 723 mmHg 29%
20:00 +29°C° 0 mm 3 mps 723 mmHg 34%
21:00 +28°C° 0 mm 3 mps 724 mmHg 39%
22:00 +27°C° 0 mm 3 mps 724 mmHg 41%
23:00 +26°C° 0 mm 4 mps 724 mmHg 44%
Show more